| time (UTC) | temp F | wind direction | speed MPH | gust MPH | rain 1hr in | rain 24hr in | rain mn in | humidity % | barometer mb |
| 20260505210240 | 83 | 173 | 9.0 | 17.0 | 0.00 | 0.00 | 0.00 | 75 | 1007.8 |
| 20260505205228 | 84 | 162 | 7.0 | 15.0 | 0.00 | 0.00 | 0.00 | 75 | 1007.9 |
| 20260505204234 | 83 | 159 | 9.0 | 16.0 | 0.00 | 0.00 | 0.00 | 75 | 1007.9 |
| 20260505203228 | 83 | 129 | 9.0 | 16.0 | 0.00 | 0.00 | 0.00 | 75 | 1008.1 |
| 20260505202236 | 83 | 181 | 8.0 | 16.0 | 0.00 | 0.00 | 0.00 | 76 | 1008.2 |
| 20260505201242 | 83 | 221 | 10.0 | 15.0 | 0.00 | 0.00 | 0.00 | 75 | 1008.3 |
| 20260505200252 | 82 | 202 | 7.0 | 15.0 | 0.00 | 0.00 | 0.00 | 77 | 1008.5 |
| 20260505195241 | 82 | 204 | 6.0 | 14.0 | 0.00 | 0.00 | 0.00 | 78 | 1008.6 |
| 20260505194228 | 82 | 67 | 5.0 | 12.0 | 0.00 | 0.00 | 0.00 | 77 | 1008.8 |
| 20260505193237 | 82 | 186 | 6.0 | 12.0 | 0.00 | 0.00 | 0.00 | 78 | 1008.9 |
| 20260505192225 | 81 | 198 | 4.0 | 12.0 | 0.00 | 0.00 | 0.00 | 78 | 1009.0 |
| 20260505191234 | 82 | 185 | 6.0 | 11.0 | 0.00 | 0.00 | 0.00 | 78 | 1009.0 |
| 20260505190303 | 81 | 169 | 7.0 | 14.0 | 0.00 | 0.00 | 0.00 | 78 | 1009.1 |
| 20260505185230 | 81 | 187 | 6.0 | 12.0 | 0.00 | 0.00 | 0.00 | 79 | 1009.1 |
| 20260505184237 | 81 | 192 | 8.0 | 16.0 | 0.00 | 0.00 | 0.00 | 78 | 1009.1 |
| 20260505183229 | 81 | 188 | 8.0 | 15.0 | 0.00 | 0.00 | 0.00 | 79 | 1009.3 |
| 20260505182237 | 81 | 179 | 8.0 | 12.0 | 0.00 | 0.00 | 0.00 | 79 | 1009.2 |
| 20260505181224 | 81 | 200 | 5.0 | 15.0 | 0.00 | 0.00 | 0.00 | 79 | 1009.4 |
| 20260505180253 | 81 | 177 | 6.0 | 17.0 | 0.00 | 0.00 | 0.00 | 79 | 1009.5 |
| 20260505175239 | 80 | 207 | 6.0 | 12.0 | 0.00 | 0.00 | 0.00 | 80 | 1009.6 |
| 20260505174229 | 80 | 200 | 8.0 | 16.0 | 0.00 | 0.00 | 0.00 | 80 | 1009.8 |
| 20260505173237 | 80 | 164 | 7.0 | 19.0 | 0.00 | 0.00 | 0.00 | 81 | 1009.7 |
| 20260505172225 | 80 | 183 | 7.0 | 12.0 | 0.00 | 0.00 | 0.00 | 81 | 1009.7 |
| 20260505171232 | 79 | 158 | 9.0 | 14.0 | 0.00 | 0.00 | 0.00 | 81 | 1009.7 |
| 20260505170225 | 79 | 144 | 6.0 | 19.0 | 0.00 | 0.00 | 0.00 | 82 | 1009.6 |
| 20260505165233 | 79 | 167 | 7.0 | 16.0 | 0.00 | 0.00 | 0.00 | 83 | 1009.7 |
| 20260505164259 | 79 | 187 | 7.0 | 12.0 | 0.00 | 0.00 | 0.00 | 82 | 1009.9 |
| 20260505163246 | 79 | 188 | 5.0 | 12.0 | 0.00 | 0.00 | 0.00 | 83 | 1009.8 |
| 20260505162237 | 79 | 172 | 10.0 | 22.0 | 0.00 | 0.00 | 0.00 | 83 | 1009.7 |
| 20260505161243 | 79 | 174 | 6.0 | 11.0 | 0.00 | 0.00 | 0.00 | 84 | 1009.7 |
| 20260505160232 | 78 | 175 | 7.0 | 19.0 | 0.00 | 0.00 | 0.00 | 84 | 1009.7 |
| 20260505153238 | 77 | 173 | 5.0 | 12.0 | 0.00 | 0.00 | 0.00 | 87 | 1009.5 |
| 20260505152226 | 77 | 179 | 5.0 | 10.0 | 0.00 | 0.00 | 0.00 | 87 | 1009.4 |
| 20260505151231 | 77 | 155 | 5.0 | 11.0 | 0.00 | 0.00 | 0.00 | 87 | 1009.5 |
| 20260505150225 | 76 | 195 | 6.0 | 10.0 | 0.00 | 0.00 | 0.00 | 88 | 1009.5 |
| 20260505140231 | 74 | 175 | 6.0 | 12.0 | 0.00 | 0.00 | 0.00 | 91 | 1009.1 |
| 20260505130227 | 71 | 175 | 3.0 | 6.0 | 0.00 | 0.00 | 0.00 | 93 | 1009.2 |
| 20260505124240 | 70 | 189 | 1.0 | 4.0 | 0.00 | 0.00 | 0.00 | 93 | 1009.0 |
| 20260505123232 | 70 | 175 | 1.0 | 5.0 | 0.00 | 0.00 | 0.00 | 93 | 1009.1 |
| 20260505122239 | 70 | 172 | 0.0 | 4.0 | 0.00 | 0.00 | 0.00 | 93 | 1009.0 |
| 20260505121226 | 70 | 168 | 1.0 | 3.0 | 0.00 | 0.00 | 0.00 | 93 | 1008.9 |
| 20260505120235 | 70 | 169 | 0.0 | 4.0 | 0.00 | 0.00 | 0.00 | 93 | 1008.8 |
| 20260505115227 | 70 | 160 | 1.0 | 4.0 | 0.00 | 0.00 | 0.00 | 93 | 1008.6 |
| 20260505114253 | 69 | 138 | 1.0 | 4.0 | 0.00 | 0.00 | 0.00 | 93 | 1008.5 |
| 20260505113241 | 69 | 177 | 1.0 | 5.0 | 0.00 | 0.00 | 0.00 | 93 | 1008.5 |
| 20260505112229 | 69 | 167 | 2.0 | 4.0 | 0.00 | 0.00 | 0.00 | 93 | 1008.7 |
| 20260505111240 | 69 | 166 | 2.0 | 4.0 | 0.00 | 0.00 | 0.00 | 93 | 1008.6 |
| 20260505110229 | 69 | 185 | 3.0 | 5.0 | 0.00 | 0.00 | 0.00 | 92 | 1008.4 |
| 20260505101230 | 69 | 175 | 3.0 | 6.0 | 0.00 | 0.00 | 0.00 | 92 | 1008.7 |
| 20260505100224 | 69 | 146 | 2.0 | 7.0 | 0.00 | 0.00 | 0.00 | 92 | 1008.6 |
| 20260505095232 | 69 | 176 | 2.0 | 5.0 | 0.00 | 0.00 | 0.00 | 92 | 1008.6 |
| 20260505094259 | 69 | 179 | 3.0 | 6.0 | 0.00 | 0.00 | 0.00 | 92 | 1008.9 |
| 20260505093226 | 69 | 167 | 4.0 | 5.0 | 0.00 | 0.00 | 0.00 | 92 | 1008.8 |
| 20260505092233 | 69 | 171 | 2.0 | 6.0 | 0.00 | 0.00 | 0.00 | 91 | 1008.7 |
| 20260505091224 | 69 | 194 | 3.0 | 6.0 | 0.00 | 0.00 | 0.00 | 91 | 1009.0 |
| 20260505090232 | 69 | 165 | 2.0 | 6.0 | 0.00 | 0.00 | 0.00 | 91 | 1009.0 |
| 20260505085239 | 69 | 192 | 2.0 | 6.0 | 0.00 | 0.00 | 0.00 | 91 | 1009.1 |
| 20260505084229 | 69 | 170 | 2.0 | 5.0 | 0.00 | 0.00 | 0.00 | 91 | 1009.1 |
| 20260505083237 | 69 | 181 | 2.0 | 5.0 | 0.00 | 0.00 | 0.00 | 90 | 1009.2 |
| 20260505082243 | 69 | 188 | 2.0 | 5.0 | 0.00 | 0.00 | 0.00 | 90 | 1009.4 |
| 20260505081249 | 69 | 190 | 2.0 | 5.0 | 0.00 | 0.00 | 0.00 | 90 | 1009.4 |
| 20260505080237 | 69 | 175 | 3.0 | 6.0 | 0.00 | 0.00 | 0.00 | 90 | 1009.5 |
| 20260505075229 | 69 | 183 | 2.0 | 7.0 | 0.00 | 0.00 | 0.00 | 90 | 1009.5 |
| 20260505074234 | 69 | 148 | 3.0 | 6.0 | 0.00 | 0.00 | 0.00 | 89 | 1009.6 |
| 20260505073243 | 69 | 181 | 4.0 | 6.0 | 0.00 | 0.00 | 0.00 | 89 | 1009.6 |
| 20260505072231 | 69 | 188 | 2.0 | 6.0 | 0.00 | 0.00 | 0.00 | 89 | 1009.8 |
| 20260505071301 | 69 | 185 | 3.0 | 8.0 | 0.00 | 0.00 | 0.00 | 88 | 1009.8 |
| 20260505070249 | 69 | 168 | 3.0 | 9.0 | 0.00 | 0.00 | 0.00 | 88 | 1009.8 |
| 20260505065236 | 69 | 187 | 4.0 | 8.0 | 0.00 | 0.00 | 0.00 | 88 | 1009.9 |
| 20260505064241 | 69 | 189 | 4.0 | 8.0 | 0.00 | 0.00 | 0.00 | 87 | 1010.0 |
| 20260505063249 | 69 | 172 | 3.0 | 8.0 | 0.00 | 0.00 | 0.00 | 87 | 1010.1 |
| 20260505062240 | 70 | 165 | 3.0 | 9.0 | 0.00 | 0.00 | 0.00 | 87 | 1010.2 |
| 20260505061226 | 70 | 198 | 3.0 | 7.0 | 0.00 | 0.00 | 0.00 | 86 | 1010.3 |
| 20260505060254 | 70 | 175 | 3.0 | 8.0 | 0.00 | 0.00 | 0.00 | 86 | 1010.2 |
| 20260505055303 | 70 | 179 | 4.0 | 8.0 | 0.00 | 0.00 | 0.00 | 86 | 1010.5 |
| 20260505054230 | 70 | 130 | 5.0 | 10.0 | 0.00 | 0.00 | 0.00 | 85 | 1010.4 |
| 20260505053259 | 70 | 186 | 4.0 | 8.0 | 0.00 | 0.00 | 0.00 | 85 | 1010.5 |
| 20260505052225 | 70 | 168 | 2.0 | 9.0 | 0.00 | 0.00 | 0.00 | 85 | 1010.6 |
| 20260505051233 | 70 | 182 | 5.0 | 11.0 | 0.00 | 0.00 | 0.00 | 84 | 1010.8 |
| 20260505050225 | 70 | 167 | 3.0 | 8.0 | 0.00 | 0.00 | 0.00 | 84 | 1011.0 |
| 20260505041225 | 71 | 202 | 4.0 | 7.0 | 0.00 | 0.00 | 0.00 | 82 | 1011.1 |
| 20260505040233 | 71 | 169 | 3.0 | 8.0 | 0.00 | 0.00 | 0.00 | 82 | 1011.0 |
| 20260505035241 | 71 | 174 | 4.0 | 9.0 | 0.00 | 0.00 | 0.00 | 81 | 1011.1 |
| 20260505034230 | 71 | 177 | 5.0 | 9.0 | 0.00 | 0.00 | 0.00 | 81 | 1011.0 |
| 20260505033239 | 71 | 167 | 4.0 | 10.0 | 0.00 | 0.00 | 0.00 | 81 | 1011.1 |
| 20260505032227 | 72 | 166 | 4.0 | 6.0 | 0.00 | 0.00 | 0.00 | 80 | 1011.2 |
| 20260505031233 | 72 | 203 | 4.0 | 9.0 | 0.00 | 0.00 | 0.00 | 79 | 1011.2 |
| 20260505030226 | 72 | 180 | 4.0 | 7.0 | 0.00 | 0.00 | 0.00 | 79 | 1011.1 |
| 20260505025234 | 72 | 161 | 1.0 | 8.0 | 0.00 | 0.00 | 0.00 | 79 | 1011.1 |
| 20260505024240 | 72 | 177 | 1.0 | 7.0 | 0.00 | 0.00 | 0.00 | 78 | 1011.1 |
| 20260505023230 | 73 | 183 | 4.0 | 9.0 | 0.00 | 0.00 | 0.00 | 78 | 1011.0 |
| 20260505022242 | 73 | 194 | 4.0 | 8.0 | 0.00 | 0.00 | 0.00 | 77 | 1011.1 |
| 20260505021229 | 73 | 182 | 3.0 | 8.0 | 0.00 | 0.00 | 0.00 | 77 | 1011.0 |
| 20260505020238 | 73 | 202 | 4.0 | 11.0 | 0.00 | 0.00 | 0.00 | 76 | 1010.7 |
| 20260505015229 | 74 | 171 | 3.0 | 9.0 | 0.00 | 0.00 | 0.00 | 76 | 1010.7 |
| 20260505014235 | 75 | 184 | 4.0 | 9.0 | 0.00 | 0.00 | 0.00 | 74 | 1010.7 |
| 20260505013243 | 75 | 178 | 5.0 | 10.0 | 0.00 | 0.00 | 0.00 | 73 | 1010.6 |
| 20260505012231 | 76 | 145 | 6.0 | 14.0 | 0.00 | 0.00 | 0.00 | 73 | 1010.3 |
| 20260505011236 | 76 | 177 | 6.0 | 14.0 | 0.00 | 0.00 | 0.00 | 72 | 1010.3 |
| 20260505010229 | 76 | 148 | 6.0 | 10.0 | 0.00 | 0.00 | 0.00 | 72 | 1010.2 |
| 20260505005237 | 76 | 198 | 5.0 | 10.0 | 0.00 | 0.00 | 0.00 | 71 | 1010.4 |
| 20260505004223 | 77 | 198 | 5.0 | 10.0 | 0.00 | 0.00 | 0.00 | 70 | 1010.4 |
| 20260505003253 | 77 | 181 | 6.0 | 12.0 | 0.00 | 0.00 | 0.00 | 69 | 1010.4 |
| 20260505002304 | 77 | 183 | 6.0 | 13.0 | 0.00 | 0.00 | 0.00 | 69 | 1010.4 |
| 20260505001228 | 77 | 158 | 6.0 | 15.0 | 0.00 | 0.00 | 0.00 | 68 | 1010.4 |
| 20260505000236 | 78 | 193 | 7.0 | 11.0 | 0.00 | 0.00 | 0.00 | 68 | 1010.4 |
| 20260504235224 | 78 | 127 | 4.0 | 13.0 | 0.00 | 0.00 | 0.00 | 67 | 1010.4 |
| 20260504234235 | 79 | 151 | 5.0 | 16.0 | 0.00 | 0.00 | 0.00 | 66 | 1010.4 |
| 20260504233304 | 79 | 185 | 7.0 | 15.0 | 0.00 | 0.00 | 0.00 | 65 | 1010.6 |
| 20260504232230 | 79 | 180 | 7.0 | 15.0 | 0.00 | 0.00 | 0.00 | 66 | 1010.6 |
| 20260504231237 | 79 | 147 | 7.0 | 14.0 | 0.00 | 0.00 | 0.00 | 65 | 1010.8 |
| 20260504230229 | 80 | 153 | 7.0 | 14.0 | 0.00 | 0.00 | 0.00 | 65 | 1010.8 |
| 20260504225236 | 80 | 187 | 6.0 | 15.0 | 0.00 | 0.00 | 0.00 | 65 | 1010.9 |
| 20260504224239 | 79 | 197 | 7.0 | 14.0 | 0.00 | 0.00 | 0.00 | 65 | 1011.0 |
| 20260504223224 | 79 | 131 | 8.0 | 19.0 | 0.00 | 0.00 | 0.00 | 65 | 1011.0 |
| 20260504222228 | 80 | 150 | 5.0 | 13.0 | 0.00 | 0.00 | 0.00 | 65 | 1011.2 |
| 20260504221256 | 80 | 196 | 8.0 | 17.0 | 0.00 | 0.00 | 0.00 | 63 | 1011.1 |
| 20260504220244 | 80 | 185 | 6.0 | 13.0 | 0.00 | 0.00 | 0.00 | 64 | 1011.3 |
| 20260504215230 | 80 | 179 | 7.0 | 14.0 | 0.00 | 0.00 | 0.00 | 63 | 1011.6 |
| 20260504214236 | 80 | 186 | 5.0 | 11.0 | 0.00 | 0.00 | 0.00 | 63 | 1011.8 |
| 20260504213227 | 80 | 181 | 5.0 | 12.0 | 0.00 | 0.00 | 0.00 | 63 | 1011.7 |
| 20260504212236 | 80 | 196 | 7.0 | 15.0 | 0.00 | 0.00 | 0.00 | 62 | 1012.0 |
| 20260504211223 | 81 | 152 | 8.0 | 13.0 | 0.00 | 0.00 | 0.00 | 60 | 1012.1 |